Home > Time Zones > World Clock > Weather > Italy > Bari > Past weeks

Flag for Italy Weather past 2 weeks in Bari, Italy

Now
46 °F

Rain. Passing clouds.


Feels Like: 39 °F
Forecast: 42 / 47 °F
Wind: 20 mph from North

Location: Bari / Palese Macchie

Current Time: Dec 28, 2014 at 11:55:59 PM

Latest Report: Dec 28, 2014 at 11:20 PM


Visibility: 5 mi

Pressure: 29.53 "Hg

Humidity: 76%

Dew point: 39 °F

Location of BariLocation

Historic Weather in Bari — Graph

°F

Bari temperature yesterday

Maximum temperature yesterday: 48 °F (at 12:50 AM)
Minimum temperature yesterday: 37 °F (at 6:20 PM)
Average temperature yesterday: 44 °F

Past Weeks' High & Low Weather Summary

 TemperatureHumidityPressure
High64 °F (Dec 17, 1:50 PM)100% (Dec 16, 4:20 AM)30.48 "Hg (Dec 16, 4:20 AM)
Low34 °F (Dec 23, 4:20 AM)29% (Dec 27, 2:20 PM)29.39 "Hg (Dec 28, 2:50 PM)
Average49 °F77%30.11 "Hg
* Reported Dec 13 10:20 PM — Dec 28 10:20 PM, Bari, Weather by CustomWeather, © 2014

Note: Actual official high and low records may vary slightly from our data, if they occured in-between our weather recording intervals... More about our weather records

Advertising

Bari weather history for previous 24 hours

 ConditionsComfort  
Time TempWeatherWind HumidityBarometerVisibility
10:20 PM
Dec 28
46 °FLight rain. Passing clouds.16 mph87%29.53 "Hg5 mi
9:50 PM45 °FLots of rain. Passing clouds.13 mph93%29.50 "Hg3 mi
9:20 PM45 °FRain. Passing clouds.14 mph93%29.47 "HgN/A
8:50 PM45 °FPassing clouds.12 mph93%29.47 "HgN/A
8:20 PM46 °FPassing clouds.13 mph87%29.47 "HgN/A
7:50 PM46 °FPassing clouds.12 mph87%29.45 "HgN/A
7:20 PM48 °FPassing clouds.10 mph82%29.45 "HgN/A
6:50 PM46 °FPassing clouds.10 mph87%29.42 "HgN/A
6:20 PM46 °FThundershowers. Passing clouds.8 mph76%29.42 "HgN/A
5:50 PM46 °FPassing clouds.6 mph82%29.42 "HgN/A
5:20 PM48 °FPassing clouds.6 mph76%29.42 "HgN/A
4:50 PM48 °FPassing clouds.6 mph76%29.42 "HgN/A
4:20 PM50 °FScattered clouds.8 mph71%29.42 "HgN/A
3:50 PM50 °FScattered clouds.10 mph71%29.42 "HgN/A
3:20 PM50 °FScattered clouds.7 mph76%29.39 "HgN/A
2:50 PM50 °FScattered clouds.6 mph82%29.39 "HgN/A
2:20 PM50 °FScattered clouds.7 mph82%29.42 "HgN/A
1:50 PM50 °FLight rain. Scattered clouds.8 mph82%29.42 "HgN/A
1:20 PM50 °FLight rain. Scattered clouds.8 mph82%29.42 "HgN/A
12:50 PM50 °FPassing clouds.10 mph71%29.45 "HgN/A
12:20 PM48 °FPassing clouds.12 mph76%29.45 "HgN/A
11:50 AM48 °FPassing clouds.12 mph76%29.45 "HgN/A
11:20 AM48 °FPassing clouds.10 mph76%29.45 "HgN/A
10:50 AM48 °FPassing clouds.13 mph76%29.45 "HgN/A
10:20 AM48 °FScattered clouds.9 mph76%29.47 "HgN/A
9:50 AM48 °FScattered clouds.10 mph76%29.45 "HgN/A
9:20 AM46 °FScattered clouds.12 mph87%29.45 "HgN/A
8:50 AM46 °FScattered clouds.9 mph87%29.47 "HgN/A
8:20 AM46 °FScattered clouds.10 mph87%29.47 "HgN/A
7:50 AM46 °FScattered clouds.9 mph87%29.47 "HgN/A
7:20 AM46 °FScattered clouds.8 mph87%29.45 "HgN/A
6:50 AM46 °FPassing clouds.10 mph87%29.47 "HgN/A
6:20 AM46 °FRain. Passing clouds.10 mph93%29.47 "HgN/A
5:50 AM46 °FRain. Passing clouds.12 mph87%29.50 "HgN/A
5:20 AM46 °FRain. Passing clouds.13 mph87%29.53 "HgN/A
4:50 AM46 °FLight rain. Passing clouds.15 mph87%29.53 "HgN/A
4:20 AM46 °FLight rain. Passing clouds.12 mph82%29.53 "HgN/A
3:50 AM50 °FPassing clouds.17 mph62%29.53 "HgN/A
2:50 AM50 °FPassing clouds.14 mph58%29.53 "HgN/A
2:20 AM48 °FPassing clouds.17 mph58%29.56 "HgN/A
1:50 AM50 °FPassing clouds.17 mph50%29.56 "HgN/A
1:20 AM48 °FPassing clouds.16 mph50%29.59 "HgN/A
12:50 AM48 °FPassing clouds.14 mph54%29.59 "HgN/A
11:50 PM
Dec 27
48 °FPassing clouds.12 mph46%29.65 "HgN/A
11:20 PM45 °FPassing clouds.8 mph53%29.71 "HgN/A
Weather by CustomWeather, © 2014

See weather overviewHow to use our weather pages